Погода в Аугсбурге

Германия     48°22′10″N   10°53′33″E
темп.,
°C
ветер,
м/с
пор.,
м/с
влажн.,
%
обл.,
%
осадки,
мм/ч
давл.,
гПа
погр.,
м
7 марта, вс
вс701:00−2в22642 0.0 102934
04:00−3в22699 0.0 102841
07:00−3юв22734 0.0 102736
10:00+4юз235916 0.0 1024377
13:00+9з465521 0.0 10211161
16:00+8сз466041 0.0 10191261
19:00+2с128125 0.0 102026
22:000зсз228246 0.0 102126
8 марта, пн
пн801:00−1зсз228223 0.0 102224
04:00−2зсз22820 0.0 102125
07:00−3с11760 0.0 102223
10:00+2св22480 0.0 1022423
13:00+5св21420 0.0 10201020
16:00+6св22440 0.0 10191174
19:000св33690 0.0 102048
22:00−1всв126833 0.0 102125
9 марта, вт
вт901:00−1в117360 0.0 102123
04:00−1ссв117458 0.0 102023
07:00−1ссз007579 0.0 102023
10:00+3зюз1159100 0.0 1020376
13:00+6зсз3446100 0.0 10191129
16:00+6зсз355098 0.0 10181393
19:00+3сз356899 0.0 1021132
22:00+1з2379100 0.0 102256
10 марта, ср
ср1001:00+2з3694100 0.4 1023395
04:00+1зюз379397 0.3 1023305
07:000зюз369296 0.4 1024180
10:00+4з347364 0.0 1023707
13:00+7зсз235969 0.0 10221105
16:00+8зюз235386 0.0 10211247
19:00+4ююв016986 0.0 102222
22:00+3ю457799 0.0 1022101
11 марта, чт
чт1101:00+3ююз4969100 0.0 1020185
04:00+5юз51352100 0.0 1018446
07:00+6юз51752100 0.1 1017879
10:00+9зюз91854100 0.0 10161094
13:00+12зюз111953100 0.0 10131425
16:00+13зюз91757100 0.0 10111571
19:00+9зюз51570100 0.1 1012902
22:00+8з61292100 4.3 1014719